Olympic National Park, WA

07:19 AM PDT am 02. August 2015 (GMT -0700)
Lake Dawn | | Change Station
CLOSE
Current Station
Persönliche Wetterstationen
Location: Port Angeles, WA
Höhe: 1864 ft
Wetterstationen in der Umgebung

Höhe 1864 ft 48.04 °N, 123.43 °W | Updated 4 minutes ago

Teils Wolkig
Teils Wolkig
61.2 °F
gefühlte 61.2 °F
N
1.6
Wind Wechselnd Wind aus West
Gusts 1.6 mph

Heute
Max. -- | schwach -- °F
--% Regenrisiko
Gestern
Max. -- | schwach -- °F
Precip. -- inch
5:51 AM 8:48 PM
Drittes Viertel, 93% visible
Druck 29.95 inch
Sichtweite 10.0 Meilen
Wolken Heiter
Taupunkt 45 °F
Feuchtigkeit 55%
Regen 0.00 inch
Schneehöhe Nicht verfügbar..
UV 0 von 12
Pollen 4.30 von 12
Luftqualität Nicht verfügbar..
Flu Activity Nicht verfügbar..
METAR KCLM 021353Z AUTO 00000KT 10SM CLR 12/11 A2995 RMK AO2 SLP141 T01220106

More Conditions Fewer Conditions

Druck 29.95 inch
Sichtweite 10.0 Meilen
Wolken Heiter
Taupunkt 45 °F
Feuchtigkeit 55%
Regen 0.00 inch
Schneehöhe Nicht verfügbar..
UV 0 von 12
Pollen 4.30 von 12
Luftqualität Nicht verfügbar..
Flu Activity Nicht verfügbar..
METAR KCLM 021353Z AUTO 00000KT 10SM CLR 12/11 A2995 RMK AO2 SLP141 T01220106

More Conditions Fewer Conditions

10-Day Weather Forecast

×

Almanac

Astronomie

Aug. 02, 2015 Aufgang Untergang
Genaue Zeit
Bürgerliche Dämmerung
Nautische Dämmerung
Astronomische Dämmerung
Mond
Länge des sichtbaren Lichts
Tageslänge
Tomorrow will be .
, % of the Moon is Illuminated

Heutige Rekorde

State Highs State Lows

Community

WunderPhotos

Upload Photos

1,843,255 Fotos hochgeladen!

WunderBlogs® & News

Nearby

Luftqualität

  Luftqualität LQ Index Schadstoff
Not available.

Schneehöhe

Station Depth Höhe

Erdbebenaktivität

Stadt Distance Mag. Time & Date
Minimum magnitude displayed is 2.5.

küstennahe Wassertemperaturen

Ort Temperatur

Stations

Wetterstationen in der Umgebung

Stationsstandort Temp. Windchill Taupunkt Feuchtigkeit Wind Precip. Höhe Aktualisiert Art